Year,Month,Day,Hour,Minute,Value (Times are PST for temperature in C)
2018,02,26,08,07,-22.50
2018,02,26,08,08,-22.50
2018,02,26,08,09,-22.50
2018,02,26,08,10,-22.50
2018,02,26,08,11,-22.50
2018,02,26,08,12,-22.50
2018,02,26,08,13,-22.50
2018,02,26,08,14,-22.50
2018,02,26,08,15,-22.50
2018,02,26,08,16,-22.50
2018,02,26,08,17,-22.40
2018,02,26,08,18,-22.30
2018,02,26,08,19,-22.30
2018,02,26,08,20,-22.30
2018,02,26,08,21,-22.30
2018,02,26,08,22,-22.30
2018,02,26,08,23,-22.30
2018,02,26,08,24,-22.20
2018,02,26,08,25,-22.20
2018,02,26,08,26,-22.20
2018,02,26,08,27,-22.10
2018,02,26,08,28,-22.00
2018,02,26,08,29,-22.00
2018,02,26,08,30,-22.00
2018,02,26,08,31,-22.00
2018,02,26,08,32,-21.90
2018,02,26,08,33,-22.00
2018,02,26,08,34,-21.90
2018,02,26,08,35,-21.90
2018,02,26,08,36,-21.70
2018,02,26,08,37,-21.70
2018,02,26,08,38,-21.70
2018,02,26,08,39,-21.70
2018,02,26,08,40,-21.60
2018,02,26,08,41,-21.50
2018,02,26,08,42,-21.40
2018,02,26,08,43,-21.40
2018,02,26,08,44,-21.40
2018,02,26,08,45,-21.30
2018,02,26,08,46,-21.20
2018,02,26,08,47,-21.10
2018,02,26,08,48,-21.10
2018,02,26,08,49,-21.10
2018,02,26,08,50,-21.10
2018,02,26,08,51,-21.10
2018,02,26,08,52,-21.00
2018,02,26,08,53,-21.00
2018,02,26,08,54,-20.80
2018,02,26,08,55,-20.80
2018,02,26,08,56,-20.80
2018,02,26,08,57,-20.80
2018,02,26,08,58,-20.80
2018,02,26,08,59,-20.70
2018,02,26,09,00,-20.60
2018,02,26,09,01,-20.70
2018,02,26,09,02,-20.70
2018,02,26,09,03,-20.70
2018,02,26,09,04,-20.70
2018,02,26,09,05,-20.70
2018,02,26,09,06,-20.70
2018,02,26,09,07,-20.60
2018,02,26,09,08,-20.60
2018,02,26,09,09,-20.50
2018,02,26,09,10,-20.50
2018,02,26,09,11,-20.50
2018,02,26,09,12,-20.50
2018,02,26,09,13,-20.50
2018,02,26,09,14,-20.40
2018,02,26,09,15,-20.40
2018,02,26,09,16,-20.30
2018,02,26,09,17,-20.20
2018,02,26,09,18,-20.20
2018,02,26,09,19,-20.20
2018,02,26,09,20,-20.10
2018,02,26,09,21,-20.10
2018,02,26,09,22,-19.90
2018,02,26,09,23,-19.90
2018,02,26,09,24,-20.00
2018,02,26,09,25,-20.10
2018,02,26,09,26,-19.90
2018,02,26,09,27,-19.90
2018,02,26,09,28,-19.90
2018,02,26,09,29,-19.90
2018,02,26,09,30,-19.90
2018,02,26,09,31,-19.90
2018,02,26,09,32,-19.90
2018,02,26,09,33,-20.00
2018,02,26,09,34,-20.00
2018,02,26,09,35,-20.20
2018,02,26,09,36,-20.10
2018,02,26,09,37,-20.20
2018,02,26,09,38,-20.20
2018,02,26,09,39,-20.40
2018,02,26,09,40,-20.50
2018,02,26,09,41,-20.50
2018,02,26,09,42,-20.70
2018,02,26,09,43,-20.80
2018,02,26,09,44,-20.80
2018,02,26,09,45,-20.80
2018,02,26,09,46,-20.80
2018,02,26,09,47,-20.80
2018,02,26,09,48,-20.80
2018,02,26,09,49,-20.90
2018,02,26,09,50,-20.80
2018,02,26,09,51,-20.80
2018,02,26,09,52,-20.90
2018,02,26,09,53,-20.90
2018,02,26,09,54,-21.00
2018,02,26,09,55,-21.00
2018,02,26,09,56,-21.10
2018,02,26,09,57,-21.00
2018,02,26,09,58,-21.00
2018,02,26,09,59,-20.80
2018,02,26,10,00,-20.80
2018,02,26,10,01,-21.00
2018,02,26,10,02,-21.00
2018,02,26,10,03,-21.00
2018,02,26,10,04,-20.80
2018,02,26,10,05,-20.80
2018,02,26,10,06,-20.80
2018,02,26,10,07,-20.80
2018,02,26,10,08,-20.70
2018,02,26,10,09,-20.60
2018,02,26,10,10,-20.40
2018,02,26,10,11,-20.50
2018,02,26,10,12,-20.50
2018,02,26,10,13,-20.40
2018,02,26,10,14,-20.50
2018,02,26,10,15,-20.50
2018,02,26,10,16,-20.40
2018,02,26,10,17,-20.40
2018,02,26,10,18,-20.20
2018,02,26,10,19,-20.10
2018,02,26,10,20,-20.20
2018,02,26,10,21,-20.20
2018,02,26,10,22,-20.20
2018,02,26,10,23,-20.20
2018,02,26,10,24,-20.20
2018,02,26,10,25,-20.20
2018,02,26,10,26,-20.20
2018,02,26,10,27,-20.20
2018,02,26,10,28,-20.30
2018,02,26,10,29,-20.40
2018,02,26,10,30,-20.40
2018,02,26,10,31,-20.30
2018,02,26,10,32,-20.40
2018,02,26,10,33,-20.20
2018,02,26,10,34,-20.20
2018,02,26,10,35,-20.30
2018,02,26,10,36,-20.40
2018,02,26,10,37,-20.40
2018,02,26,10,38,-20.40
2018,02,26,10,39,-20.40
2018,02,26,10,40,-20.40
2018,02,26,10,41,-20.40
2018,02,26,10,42,-20.40
2018,02,26,10,43,-20.50
2018,02,26,10,44,-20.50
2018,02,26,10,45,-20.50
2018,02,26,10,46,-20.50
2018,02,26,10,47,-20.50
2018,02,26,10,48,-20.40
2018,02,26,10,49,-20.40
2018,02,26,10,50,-20.40
2018,02,26,10,51,-20.40
2018,02,26,10,52,-20.40
2018,02,26,10,53,-20.40
2018,02,26,10,54,-20.40
2018,02,26,10,55,-20.40
2018,02,26,10,56,-20.40
2018,02,26,10,57,-20.50
2018,02,26,10,58,-20.50
2018,02,26,10,59,-20.50
2018,02,26,11,00,-20.50
2018,02,26,11,01,-20.60
2018,02,26,11,02,-20.50
2018,02,26,11,03,-20.50
2018,02,26,11,04,-20.50
2018,02,26,11,05,-20.50
2018,02,26,11,06,-20.50
2018,02,26,11,07,-20.50
2018,02,26,11,08,-20.50
2018,02,26,11,09,-20.50
2018,02,26,11,10,-20.40
2018,02,26,11,11,-20.50
2018,02,26,11,12,-20.50
2018,02,26,11,13,-20.50
2018,02,26,11,14,-20.70
2018,02,26,11,15,-20.60
2018,02,26,11,16,-20.70
2018,02,26,11,17,-20.70
2018,02,26,11,18,-20.70
2018,02,26,11,19,-20.70
2018,02,26,11,20,-20.60
2018,02,26,11,21,-20.70
2018,02,26,11,22,-20.80
2018,02,26,11,23,-20.80
2018,02,26,11,24,-20.80
2018,02,26,11,25,-20.80
2018,02,26,11,26,-20.80
2018,02,26,11,27,-20.80
2018,02,26,11,28,-20.80
2018,02,26,11,29,-20.80
2018,02,26,11,30,-20.70
2018,02,26,11,31,-20.60
2018,02,26,11,32,-20.70
2018,02,26,11,33,-20.70
2018,02,26,11,34,-20.70
2018,02,26,11,35,-20.70
2018,02,26,11,36,-20.70
2018,02,26,11,37,-20.60
2018,02,26,11,38,-20.70
2018,02,26,11,39,-20.70
2018,02,26,11,40,-20.70
2018,02,26,11,41,-20.70
2018,02,26,11,42,-20.70
2018,02,26,11,43,-20.70
2018,02,26,11,44,-20.70
2018,02,26,11,45,-20.70
2018,02,26,11,46,-20.60
2018,02,26,11,47,-20.60
2018,02,26,11,48,-20.60
2018,02,26,11,49,-20.70
2018,02,26,11,50,-20.70
2018,02,26,11,51,-20.60
2018,02,26,11,52,-20.50
2018,02,26,11,53,-20.60
2018,02,26,11,54,-20.60
2018,02,26,11,55,-20.50
2018,02,26,11,56,-20.50
2018,02,26,11,57,-20.50
2018,02,26,11,58,-20.50
2018,02,26,11,59,-20.50
2018,02,26,12,00,-20.50
2018,02,26,12,01,-20.40
2018,02,26,12,02,-20.40
2018,02,26,12,03,-20.40
2018,02,26,12,04,-20.30
2018,02,26,12,05,-20.40
2018,02,26,12,06,-20.30
2018,02,26,12,07,-20.20
2018,02,26,12,08,-20.20
2018,02,26,12,09,-20.20
2018,02,26,12,10,-20.20
2018,02,26,12,11,-20.20
2018,02,26,12,12,-20.10
2018,02,26,12,13,-19.90
2018,02,26,12,14,-19.90
2018,02,26,12,15,-19.90
2018,02,26,12,16,-19.90
2018,02,26,12,17,-19.80
2018,02,26,12,18,-19.80
2018,02,26,12,19,-19.80
2018,02,26,12,20,-19.60
2018,02,26,12,21,-19.60
2018,02,26,12,22,-19.60
2018,02,26,12,23,-19.80
2018,02,26,12,24,-19.70
2018,02,26,12,25,-19.80
2018,02,26,12,26,-19.60
2018,02,26,12,27,-19.60
2018,02,26,12,28,-19.60
2018,02,26,12,29,-19.60
2018,02,26,12,30,-19.60
2018,02,26,12,31,-19.60
2018,02,26,12,32,-19.60
2018,02,26,12,33,-19.50
2018,02,26,12,34,-19.50
2018,02,26,12,35,-19.50
2018,02,26,12,36,-19.50
2018,02,26,12,37,-19.50
2018,02,26,12,38,-19.50
2018,02,26,12,39,-19.40
2018,02,26,12,40,-19.30
2018,02,26,12,41,-19.20
2018,02,26,12,42,-19.00
2018,02,26,12,43,-19.00
2018,02,26,12,44,-19.00
2018,02,26,12,45,-19.00
2018,02,26,12,46,-19.00
2018,02,26,12,47,-18.70
2018,02,26,12,48,-18.70
2018,02,26,12,49,-18.60
2018,02,26,12,50,-18.60
2018,02,26,12,51,-18.60
2018,02,26,12,52,-18.50
2018,02,26,12,53,-18.60
2018,02,26,12,54,-18.40
2018,02,26,12,55,-18.40
2018,02,26,12,56,-18.20
2018,02,26,12,57,-18.40
2018,02,26,12,58,-18.10
2018,02,26,12,59,-18.00
2018,02,26,13,00,-18.10
2018,02,26,13,01,-18.00
2018,02,26,13,02,-18.00
2018,02,26,13,03,-18.10
2018,02,26,13,04,-18.10
2018,02,26,13,05,-18.10
2018,02,26,13,06,-18.10
2018,02,26,13,07,-18.10
2018,02,26,13,08,-18.10
2018,02,26,13,09,-18.10
2018,02,26,13,10,-18.10
2018,02,26,13,11,-18.10
2018,02,26,13,12,-18.10
2018,02,26,13,13,-18.10
2018,02,26,13,14,-18.20
2018,02,26,13,15,-18.30
2018,02,26,13,16,-18.30
2018,02,26,13,17,-18.30
2018,02,26,13,18,-18.10
2018,02,26,13,19,-18.10
2018,02,26,13,20,-18.20
2018,02,26,13,21,-18.30
2018,02,26,13,22,-18.30
2018,02,26,13,23,-18.40
2018,02,26,13,24,-18.40
2018,02,26,13,25,-18.40
2018,02,26,13,26,-18.40
2018,02,26,13,27,-18.60
2018,02,26,13,28,-18.50
2018,02,26,13,29,-18.40
2018,02,26,13,30,-18.60
2018,02,26,13,31,-18.70
2018,02,26,13,32,-18.70
2018,02,26,13,33,-18.70
2018,02,26,13,34,-18.70
2018,02,26,13,35,-18.70
2018,02,26,13,36,-18.70
2018,02,26,13,37,-18.70
2018,02,26,13,38,-18.70
2018,02,26,13,39,-18.70
2018,02,26,13,40,-18.70
2018,02,26,13,41,-18.70
2018,02,26,13,42,-18.70
2018,02,26,13,43,-18.70
2018,02,26,13,44,-18.70
2018,02,26,13,45,-18.70
2018,02,26,13,46,-18.70
2018,02,26,13,47,-18.70
2018,02,26,13,48,-18.90
2018,02,26,13,49,-18.90
2018,02,26,13,50,-19.00
2018,02,26,13,51,-19.00
2018,02,26,13,52,-19.10
2018,02,26,13,53,-19.10
2018,02,26,13,54,-19.10
2018,02,26,13,55,-19.00
2018,02,26,13,56,-19.10
2018,02,26,13,57,-19.00
2018,02,26,13,58,-19.00
2018,02,26,13,59,-19.00
2018,02,26,14,00,-19.00
2018,02,26,14,01,-19.00
2018,02,26,14,02,-19.10
2018,02,26,14,03,-19.00
2018,02,26,14,04,-18.90
2018,02,26,14,05,-19.00
2018,02,26,14,06,-19.00
2018,02,26,14,07,-18.90
2018,02,26,14,08,-18.90
2018,02,26,14,09,-18.70
2018,02,26,14,10,-18.80
2018,02,26,14,11,-18.80
2018,02,26,14,12,-18.70
2018,02,26,14,13,-18.70
2018,02,26,14,14,-18.70
2018,02,26,14,15,-18.70
2018,02,26,14,16,-18.70
2018,02,26,14,17,-18.70
2018,02,26,14,18,-18.80
2018,02,26,14,19,-18.70
2018,02,26,14,20,-18.70
2018,02,26,14,21,-18.70
2018,02,26,14,22,-18.70
2018,02,26,14,23,-18.70
2018,02,26,14,24,-18.70
2018,02,26,14,25,-18.80
2018,02,26,14,26,-18.80
2018,02,26,14,27,-18.90
2018,02,26,14,28,-18.40
2018,02,26,14,29,-18.40
2018,02,26,14,30,-18.70
2018,02,26,14,31,-18.70
2018,02,26,14,32,-18.60
2018,02,26,14,33,-18.70
2018,02,26,14,34,-18.60
2018,02,26,14,35,-18.70
2018,02,26,14,36,-18.70
2018,02,26,14,37,-18.70
2018,02,26,14,38,-18.70
2018,02,26,14,39,-18.70
2018,02,26,14,40,-18.70
2018,02,26,14,41,-18.70
2018,02,26,14,42,-18.60
2018,02,26,14,43,-18.50
2018,02,26,14,44,-18.60
2018,02,26,14,45,-18.40
2018,02,26,14,46,-18.40
2018,02,26,14,47,-18.30
2018,02,26,14,48,-18.30
2018,02,26,14,49,-18.30
2018,02,26,14,50,-18.20
2018,02,26,14,51,-18.20
2018,02,26,14,52,-18.20
2018,02,26,14,53,-18.30
2018,02,26,14,54,-18.40
2018,02,26,14,55,-18.40
2018,02,26,14,56,-18.40
2018,02,26,14,57,-18.30
2018,02,26,14,58,-18.20
2018,02,26,14,59,-18.10
2018,02,26,15,00,-18.10
2018,02,26,15,01,-18.10
2018,02,26,15,02,-18.00
2018,02,26,15,03,-18.00
2018,02,26,15,04,-17.80
2018,02,26,15,05,-17.80
2018,02,26,15,06,-17.60
2018,02,26,15,07,-17.50
2018,02,26,15,08,-17.40
2018,02,26,15,09,-17.40
2018,02,26,15,10,-17.50
2018,02,26,15,11,-17.40
2018,02,26,15,12,-17.10
2018,02,26,15,13,-17.20
2018,02,26,15,14,-17.10
2018,02,26,15,15,-17.00
2018,02,26,15,16,-16.90
2018,02,26,15,17,-16.90
2018,02,26,15,18,-16.90
2018,02,26,15,19,-16.80
2018,02,26,15,20,-16.60
2018,02,26,15,21,-16.70
2018,02,26,15,22,-16.60
2018,02,26,15,23,-16.80
2018,02,26,15,24,-16.80
2018,02,26,15,25,-16.80
2018,02,26,15,26,-16.90
2018,02,26,15,27,-17.00
2018,02,26,15,28,-17.00
2018,02,26,15,29,-17.10
2018,02,26,15,30,-17.10
2018,02,26,15,31,-17.10
2018,02,26,15,32,-17.10
2018,02,26,15,33,-17.20
2018,02,26,15,34,-17.20
2018,02,26,15,35,-17.20
2018,02,26,15,36,-17.40
2018,02,26,15,37,-17.50
2018,02,26,15,38,-17.50
2018,02,26,15,39,-17.60
2018,02,26,15,40,-17.60
2018,02,26,15,41,-17.60
2018,02,26,15,42,-17.70
2018,02,26,15,43,-17.50
2018,02,26,15,44,-17.80
2018,02,26,15,45,-17.80
2018,02,26,15,46,-17.80
2018,02,26,15,47,-17.80
2018,02,26,15,48,-17.80
2018,02,26,15,49,-17.80
2018,02,26,15,50,-17.70
2018,02,26,15,51,-17.80
2018,02,26,15,52,-17.80
2018,02,26,15,53,-17.80
2018,02,26,15,54,-17.80
2018,02,26,15,55,-17.80
2018,02,26,15,56,-17.80
2018,02,26,15,57,-17.90
2018,02,26,15,58,-17.90
2018,02,26,15,59,-17.80
2018,02,26,16,00,-17.80
2018,02,26,16,01,-17.80
2018,02,26,16,02,-17.90
2018,02,26,16,03,-18.00
2018,02,26,16,04,-18.00
2018,02,26,16,05,-18.00
2018,02,26,16,06,-18.10
2018,02,26,16,07,-18.10
2018,02,26,16,08,-18.10
2018,02,26,16,09,-18.10
2018,02,26,16,10,-18.20
2018,02,26,16,11,-18.30
2018,02,26,16,12,-18.20
2018,02,26,16,13,-18.40
2018,02,26,16,14,-18.40
2018,02,26,16,15,-18.40
2018,02,26,16,16,-18.40
2018,02,26,16,17,-18.40
2018,02,26,16,18,-18.30
2018,02,26,16,19,-18.40
2018,02,26,16,20,-18.40
2018,02,26,16,21,-18.40
2018,02,26,16,22,-18.40
2018,02,26,16,23,-18.40
2018,02,26,16,24,-18.40
2018,02,26,16,25,-18.50
2018,02,26,16,26,-18.60
2018,02,26,16,27,-18.50
2018,02,26,16,28,-18.50
2018,02,26,16,29,-18.50
2018,02,26,16,30,-18.50
2018,02,26,16,31,-18.70
2018,02,26,16,32,-18.70
2018,02,26,16,33,-18.70
2018,02,26,16,34,-18.70
2018,02,26,16,35,-19.00
2018,02,26,16,36,-19.00
2018,02,26,16,37,-19.00
2018,02,26,16,38,-19.10
2018,02,26,16,39,-19.30
2018,02,26,16,40,-19.30
2018,02,26,16,41,-19.30
2018,02,26,16,42,-19.30
2018,02,26,16,43,-19.30
2018,02,26,16,44,-19.30
2018,02,26,16,45,-19.50
2018,02,26,16,46,-19.50
2018,02,26,16,47,-19.50
2018,02,26,16,48,-19.60
2018,02,26,16,49,-19.60
2018,02,26,16,50,-19.60
2018,02,26,16,51,-19.60
2018,02,26,16,52,-19.70
2018,02,26,16,53,-19.60
2018,02,26,16,54,-19.60
2018,02,26,16,55,-19.80
2018,02,26,16,56,-19.80
2018,02,26,16,57,-19.80
2018,02,26,16,58,-19.90
2018,02,26,16,59,-19.80
2018,02,26,17,00,-19.90
2018,02,26,17,01,-19.90
2018,02,26,17,02,-19.90
2018,02,26,17,03,-19.90
2018,02,26,17,04,-20.00
2018,02,26,17,05,-20.00
2018,02,26,17,06,-20.10
2018,02,26,17,07,-20.10
2018,02,26,17,08,-20.20
2018,02,26,17,09,-20.20
2018,02,26,17,10,-20.20
2018,02,26,17,11,-20.20
2018,02,26,17,12,-20.20
2018,02,26,17,13,-20.50
2018,02,26,17,14,-20.40
2018,02,26,17,15,-20.50
2018,02,26,17,16,-20.50
2018,02,26,17,17,-20.50
2018,02,26,17,18,-20.50
2018,02,26,17,19,-20.50
2018,02,26,17,20,-20.60
2018,02,26,17,21,-20.80
2018,02,26,17,22,-20.80
2018,02,26,17,23,-20.80
2018,02,26,17,24,-20.80
2018,02,26,17,25,-20.80
2018,02,26,17,26,-21.00
2018,02,26,17,27,-21.10
2018,02,26,17,28,-21.10
2018,02,26,17,29,-21.10
2018,02,26,17,30,-21.10
2018,02,26,17,31,-21.10
2018,02,26,17,32,-21.20
2018,02,26,17,33,-21.30
2018,02,26,17,34,-21.30
2018,02,26,17,35,-21.30
2018,02,26,17,36,-21.40
2018,02,26,17,37,-21.40
2018,02,26,17,38,-21.40
2018,02,26,17,39,-21.40
2018,02,26,17,40,-21.50
2018,02,26,17,41,-21.70
2018,02,26,17,42,-21.60
2018,02,26,17,43,-21.70
2018,02,26,17,44,-21.70
2018,02,26,17,45,-21.70
2018,02,26,17,46,-21.70
2018,02,26,17,47,-21.70
2018,02,26,17,48,-21.90
2018,02,26,17,49,-21.90
2018,02,26,17,50,-21.90
2018,02,26,17,51,-21.90
2018,02,26,17,52,-21.90
2018,02,26,17,53,-22.00
2018,02,26,17,54,-22.00
2018,02,26,17,55,-22.00
2018,02,26,17,56,-22.00
2018,02,26,17,57,-22.10
2018,02,26,17,58,-22.20
2018,02,26,17,59,-22.30
2018,02,26,18,00,-22.30
2018,02,26,18,01,-22.30
2018,02,26,18,02,-22.30
2018,02,26,18,03,-22.30
2018,02,26,18,04,-22.40
2018,02,26,18,05,-22.50
2018,02,26,18,06,-22.50
2018,02,26,18,07,-22.50
2018,02,26,18,08,-22.50
2018,02,26,18,09,-22.50
2018,02,26,18,10,-22.50
2018,02,26,18,11,-22.50
2018,02,26,18,12,-22.60
2018,02,26,18,13,-22.80
2018,02,26,18,14,-22.80
2018,02,26,18,15,-22.80
2018,02,26,18,16,-22.80
2018,02,26,18,17,-22.90
2018,02,26,18,18,-22.90
2018,02,26,18,19,-22.90
2018,02,26,18,20,-23.00
2018,02,26,18,21,-23.00
2018,02,26,18,22,-23.20
2018,02,26,18,23,-23.20
2018,02,26,18,24,-23.20
2018,02,26,18,25,-23.20
2018,02,26,18,26,-23.20
2018,02,26,18,27,-23.20
2018,02,26,18,28,-23.20
2018,02,26,18,29,-23.30
2018,02,26,18,30,-23.40
2018,02,26,18,31,-23.50
2018,02,26,18,32,-23.50
2018,02,26,18,33,-23.60
2018,02,26,18,34,-23.60
2018,02,26,18,35,-23.60
2018,02,26,18,36,-23.60
2018,02,26,18,37,-23.60
2018,02,26,18,38,-23.60
2018,02,26,18,39,-23.60
2018,02,26,18,40,-23.60
2018,02,26,18,41,-23.60
2018,02,26,18,42,-23.80
2018,02,26,18,43,-23.90
2018,02,26,18,44,-23.80
2018,02,26,18,45,-23.80
2018,02,26,18,46,-23.90
2018,02,26,18,47,-23.90
2018,02,26,18,48,-23.80
2018,02,26,18,49,-23.90
2018,02,26,18,50,-23.90
2018,02,26,18,51,-23.90
2018,02,26,18,52,-23.90
2018,02,26,18,53,-23.90
2018,02,26,18,54,-23.90
2018,02,26,18,55,-23.90
2018,02,26,18,56,-23.90
2018,02,26,18,57,-23.90
2018,02,26,18,58,-23.90
2018,02,26,18,59,-23.90
2018,02,26,19,00,-24.00
2018,02,26,19,01,-24.00
2018,02,26,19,02,-24.00
2018,02,26,19,03,-24.00
2018,02,26,19,04,-24.10
2018,02,26,19,05,-24.10
2018,02,26,19,06,-24.10
2018,02,26,19,07,-24.00
2018,02,26,19,08,-24.00
2018,02,26,19,09,-24.10
2018,02,26,19,10,-24.10
2018,02,26,19,11,-24.10
2018,02,26,19,12,-24.00
2018,02,26,19,13,-23.90
2018,02,26,19,14,-24.00
2018,02,26,19,15,-24.00
2018,02,26,19,16,-23.90
2018,02,26,19,17,-23.90
2018,02,26,19,18,-23.90
2018,02,26,19,19,-23.80
2018,02,26,19,20,-23.80
2018,02,26,19,21,-23.80
2018,02,26,19,22,-23.80
2018,02,26,19,23,-23.70
2018,02,26,19,24,-23.80
2018,02,26,19,25,-23.70
2018,02,26,19,26,-23.60
2018,02,26,19,27,-23.80
2018,02,26,19,28,-23.60
2018,02,26,19,29,-23.60
2018,02,26,19,30,-23.60
2018,02,26,19,31,-23.60
2018,02,26,19,32,-23.60
2018,02,26,19,33,-23.60
2018,02,26,19,34,-23.50
2018,02,26,19,35,-23.50
2018,02,26,19,36,-23.50
2018,02,26,19,37,-23.40
2018,02,26,19,38,-23.30
2018,02,26,19,39,-23.20
2018,02,26,19,40,-23.20
2018,02,26,19,41,-23.20
2018,02,26,19,42,-23.40
2018,02,26,19,43,-23.30
2018,02,26,19,44,-23.30
2018,02,26,19,45,-23.20
2018,02,26,19,46,-23.20
2018,02,26,19,47,-23.20
2018,02,26,19,48,-23.20
2018,02,26,19,49,-23.20
2018,02,26,19,50,-23.20
2018,02,26,19,51,-23.20
2018,02,26,19,52,-23.20
2018,02,26,19,53,-23.40
2018,02,26,19,54,-23.50
2018,02,26,19,55,-23.50
2018,02,26,19,56,-23.60
2018,02,26,19,57,-23.50
2018,02,26,19,58,-23.30
2018,02,26,19,59,-23.20
2018,02,26,20,00,-23.20
2018,02,26,20,01,-23.20
2018,02,26,20,02,-23.20
2018,02,26,20,03,-23.20
2018,02,26,20,04,-23.20
2018,02,26,20,05,-23.20
2018,02,26,20,06,-23.20
2018,02,26,20,07,-23.10
2018,02,26,20,08,-23.20
2018,02,26,20,09,-23.20
2018,02,26,20,10,-23.20
2018,02,26,20,11,-23.10
2018,02,26,20,12,-22.90
2018,02,26,20,13,-23.00
2018,02,26,20,14,-22.90
2018,02,26,20,15,-22.90
2018,02,26,20,16,-22.90
2018,02,26,20,17,-22.90
2018,02,26,20,18,-22.90
2018,02,26,20,19,-22.80
2018,02,26,20,20,-22.80
2018,02,26,20,21,-22.80
2018,02,26,20,22,-22.80
2018,02,26,20,23,-22.70
2018,02,26,20,24,-22.60
2018,02,26,20,25,-22.50
2018,02,26,20,26,-22.50
2018,02,26,20,27,-22.30
2018,02,26,20,28,-22.40
2018,02,26,20,29,-22.50
2018,02,26,20,30,-22.40
2018,02,26,20,31,-22.40
2018,02,26,20,32,-22.30
2018,02,26,20,33,-22.30
2018,02,26,20,34,-22.30
2018,02,26,20,35,-22.30
2018,02,26,20,36,-22.30
2018,02,26,20,37,-22.30
2018,02,26,20,38,-22.30
2018,02,26,20,39,-22.30
2018,02,26,20,40,-22.30
2018,02,26,20,41,-22.30
2018,02,26,20,42,-22.30
2018,02,26,20,43,-22.30
2018,02,26,20,44,-22.30
2018,02,26,20,45,-22.40
2018,02,26,20,46,-22.50
2018,02,26,20,47,-22.50
2018,02,26,20,48,-22.50
2018,02,26,20,49,-22.50
2018,02,26,20,50,-22.50
2018,02,26,20,51,-22.50
2018,02,26,20,52,-22.70
2018,02,26,20,53,-22.60
2018,02,26,20,54,-22.80
2018,02,26,20,55,-22.80
2018,02,26,20,56,-22.80
2018,02,26,20,57,-22.80
2018,02,26,20,58,-22.80
2018,02,26,20,59,-22.80
2018,02,26,21,00,-22.80
2018,02,26,21,01,-22.80
2018,02,26,21,02,-22.90
2018,02,26,21,03,-22.60
2018,02,26,21,04,-22.50
2018,02,26,21,05,-22.50
2018,02,26,21,06,-22.50
2018,02,26,21,07,-22.50
2018,02,26,21,08,-22.50
2018,02,26,21,09,-22.50
2018,02,26,21,10,-22.60
2018,02,26,21,11,-22.70
2018,02,26,21,12,-22.50
2018,02,26,21,13,-22.50
2018,02,26,21,14,-22.50
2018,02,26,21,15,-22.50
2018,02,26,21,16,-22.50
2018,02,26,21,17,-22.40
2018,02,26,21,18,-22.50
2018,02,26,21,19,-22.50
2018,02,26,21,20,-22.40
2018,02,26,21,21,-22.30
2018,02,26,21,22,-22.30
2018,02,26,21,23,-22.30
2018,02,26,21,24,-22.30
2018,02,26,21,25,-22.30
2018,02,26,21,26,-22.30
2018,02,26,21,27,-22.30
2018,02,26,21,28,-22.30
2018,02,26,21,29,-22.30
2018,02,26,21,30,-22.30
2018,02,26,21,31,-22.30
2018,02,26,21,32,-22.30
2018,02,26,21,33,-22.30
2018,02,26,21,34,-22.30
2018,02,26,21,35,-22.30
2018,02,26,21,36,-22.30
2018,02,26,21,37,-22.30
2018,02,26,21,38,-22.30
2018,02,26,21,39,-22.30
2018,02,26,21,40,-22.30
2018,02,26,21,41,-22.40
2018,02,26,21,42,-22.40
2018,02,26,21,43,-22.30
2018,02,26,21,44,-22.30
2018,02,26,21,45,-22.30
2018,02,26,21,46,-22.30
2018,02,26,21,47,-22.30
2018,02,26,21,48,-22.30
2018,02,26,21,49,-22.30
2018,02,26,21,50,-22.30
2018,02,26,21,51,-22.30
2018,02,26,21,52,-22.30
2018,02,26,21,53,-22.30
2018,02,26,21,54,-22.30
2018,02,26,21,55,-22.30
2018,02,26,21,56,-22.40
2018,02,26,21,57,-22.30
2018,02,26,21,58,-22.30
2018,02,26,21,59,-22.30
2018,02,26,22,00,-22.30
2018,02,26,22,01,-22.30
2018,02,26,22,02,-22.30
2018,02,26,22,03,-22.40
2018,02,26,22,04,-22.40
2018,02,26,22,05,-22.40
2018,02,26,22,06,-22.40
2018,02,26,22,07,-22.50
2018,02,26,22,08,-22.50
2018,02,26,22,09,-22.40
2018,02,26,22,10,-22.50
2018,02,26,22,11,-22.50
2018,02,26,22,12,-22.50
2018,02,26,22,13,-22.50
2018,02,26,22,14,-22.50
2018,02,26,22,15,-22.50
2018,02,26,22,16,-22.50
2018,02,26,22,17,-22.50
2018,02,26,22,18,-22.30
2018,02,26,22,19,-22.30
2018,02,26,22,20,-22.30
2018,02,26,22,21,-22.30
2018,02,26,22,22,-22.30
2018,02,26,22,23,-22.30
2018,02,26,22,24,-22.30
2018,02,26,22,25,-22.20
2018,02,26,22,26,-22.30
2018,02,26,22,27,-22.30
2018,02,26,22,28,-22.20
2018,02,26,22,29,-22.10
2018,02,26,22,30,-22.00
2018,02,26,22,31,-22.00
2018,02,26,22,32,-22.00
2018,02,26,22,33,-22.00
2018,02,26,22,34,-22.00
2018,02,26,22,35,-21.90
2018,02,26,22,36,-22.00
2018,02,26,22,37,-22.00
2018,02,26,22,38,-22.00
2018,02,26,22,39,-22.00
2018,02,26,22,40,-22.10
2018,02,26,22,41,-22.00
2018,02,26,22,42,-21.90
2018,02,26,22,43,-21.80
2018,02,26,22,44,-21.80
2018,02,26,22,45,-21.90
2018,02,26,22,46,-21.90
2018,02,26,22,47,-22.00
2018,02,26,22,48,-21.90
2018,02,26,22,49,-21.90
2018,02,26,22,50,-21.90
2018,02,26,22,51,-21.90
2018,02,26,22,52,-22.00
2018,02,26,22,53,-21.90
2018,02,26,22,54,-22.00
2018,02,26,22,55,-22.00
2018,02,26,22,56,-22.00
2018,02,26,22,57,-22.00
2018,02,26,22,58,-22.10
2018,02,26,22,59,-22.30
2018,02,26,23,00,-22.30
2018,02,26,23,01,-22.20
2018,02,26,23,02,-22.20
2018,02,26,23,03,-22.30
2018,02,26,23,04,-22.30
2018,02,26,23,05,-22.30
2018,02,26,23,06,-22.30
2018,02,26,23,07,-22.30
2018,02,26,23,08,-22.30
2018,02,26,23,09,-22.30
2018,02,26,23,10,-22.30
2018,02,26,23,11,-22.30
2018,02,26,23,12,-22.30
2018,02,26,23,13,-22.30
2018,02,26,23,14,-22.30
2018,02,26,23,15,-22.40
2018,02,26,23,16,-22.30
2018,02,26,23,17,-22.30
2018,02,26,23,18,-22.50
2018,02,26,23,19,-22.40
2018,02,26,23,20,-22.40
2018,02,26,23,21,-22.40
2018,02,26,23,22,-22.40
2018,02,26,23,23,-22.40
2018,02,26,23,24,-22.40
2018,02,26,23,25,-22.50
2018,02,26,23,26,-22.40
2018,02,26,23,27,-22.50
2018,02,26,23,28,-22.50
2018,02,26,23,29,-22.50
2018,02,26,23,30,-22.50
2018,02,26,23,31,-22.50
2018,02,26,23,32,-22.50
2018,02,26,23,33,-22.50
2018,02,26,23,34,-22.50
2018,02,26,23,35,-22.50
2018,02,26,23,36,-22.50
2018,02,26,23,37,-22.50
2018,02,26,23,38,-22.50
2018,02,26,23,39,-22.50
2018,02,26,23,40,-22.50
2018,02,26,23,41,-22.50
2018,02,26,23,42,-22.50
2018,02,26,23,43,-22.50
2018,02,26,23,44,-22.50
2018,02,26,23,45,-22.50
2018,02,26,23,46,-22.50
2018,02,26,23,47,-22.50
2018,02,26,23,48,-22.50
2018,02,26,23,49,-22.70
2018,02,26,23,50,-22.90
2018,02,26,23,51,-22.90
2018,02,26,23,52,-22.90
2018,02,26,23,53,-22.90
2018,02,26,23,54,-22.90
2018,02,26,23,55,-22.90
2018,02,26,23,56,-22.90
2018,02,26,23,57,-22.90
2018,02,26,23,58,-22.90
2018,02,26,23,59,-22.90
